www.pogodaiklimat.ru

Погода и климат >> Архив погоды >> Саудовская Аравия >> Al-Wajh


ПОГОДА в Al-Wajh

  • Прогноз погоды в Al-Wajh
  • Монитор погоды в Al-Wajh
  • Климат города

АРХИВ ПОГОДЫ в Al-Wajh

Время (UTC), дата Ветер
(напр.,м/с)
 
Видим.   Явления Облачность Т
(С)
Тd
(С)
f
(%)
Тe
(С)
Тes
(С)
Комфортность P
(гПа)
Po
(гПа)
Тmin
(С)
Tmax
(С)
R
(мм)
R24
(мм)
S
(см)
03 11.10 С 3 10 км ясно +26.4 +23.0 82 +35 +35 очень
душно
1009.3 1006.6
06 11.10 СВ 2 10 км ясно +29.2 +24.0 74 +41 +46 опасность
перегрева
1010.4 1007.7 +24.2
09 11.10 З 6 10 км ясно +31.8 +25.0 67 +45 +51 опасность
перегрева
1010.2 1007.5
12 11.10 СЗ 5 10 км ясно +32.2 +25.0 66 +46 +51 опасность
перегрева
1009.0 1006.3
15 11.10 СЗ 7 10 км ясно +29.5 +24.0 72 +41 +41 опасность
перегрева
1009.1 1006.4
18 11.10 С 2 10 км ясно +27.5 +22.0 72 +36 +36 очень
душно
1010.3 1007.6 +33.0
21 11.10 С 3 10 км ясно +26.8 +17.0 55 +31 +31 душно 1010.4 1007.7
00 12.10 С 3 10 км ясно +24.4 +16.0 59 +28 +28 душно 1009.6 1006.9
03 12.10 С 2 10 км ясно +24.0 +20.0 78 +29 +29 душно 1010.0 1007.3
06 12.10 С 3 10 км ясно +27.0 +23.0 79 +36 +40 очень
душно
1011.3 1008.6 +23.0
09 12.10 СЗ 8 10 км ясно +31.2 +26.0 74 +47 +50 опасность
перегрева
1011.0 1008.3
12 12.10 СЗ 9 10 км ясно +31.8 +24.0 63 +43 +44 опасность
перегрева
1009.9 1007.2
15 12.10 СЗ 9 10 км ясно +29.6 +23.0 68 +40 +40 очень
душно
1009.9 1007.2
18 12.10 СЗ 6 10 км ясно +27.8 +21.0 67 +35 +35 очень
душно
1011.5 1008.8 +32.6
21 12.10 С 2 10 км ясно +25.6 +20.0 71 +31 +31 очень
душно
1011.0 1008.3
00 13.10 С 2 10 км ясно +24.2 +22.0 88 +31 +31 очень
душно
1010.5 1007.8
03 13.10 С 3 10 км ясно +24.5 +17.0 63 +28 +28 душно 1010.3 1007.6
06 13.10 С 2 10 км ясно +27.0 +17.0 54 +31 +35 душно 1011.8 1009.1 +23.8
09 13.10 З 6 10 км ясно +30.8 +21.0 56 +38 +44 очень
душно
1011.4 1008.7
12 13.10 СЗ 6 10 км ясно +32.2 +24.0 62 +44 +48 опасность
перегрева
1009.9 1007.2
15 13.10 СЗ 7 10 км ясно +29.8 +24.0 71 +41 +41 опасность
перегрева
1010.0 1007.3
18 13.10 С 5 10 км ясно +28.4 +23.0 73 +38 +38 очень
душно
1011.3 1008.6 +32.2
21 13.10 С 2 10 км ясно +25.8 +21.0 75 +32 +32 очень
душно
1011.3 1008.6
00 14.10 С 3 10 км ясно +25.6 +22.0 81 +33 +33 очень
душно
1010.3 1007.6
03 14.10 С 3 10 км ясно +23.8 +18.0 70 +28 +28 душно 1010.9 1008.2
06 14.10 СЗ 3 10 км ясно +28.0 +21.0 66 +35 +39 очень
душно
1011.8 1009.1 +22.4
09 14.10 СЗ 8 10 км ясно +31.8 +25.0 67 +45 +48 опасность
перегрева
1011.2 1008.5
12 14.10 СЗ 9 10 км ясно +32.0 +26.0 71 +48 +49 опасность
перегрева
1009.7 1007.0
15 14.10 СЗ 8 10 км 3/0
[Ci fib]
+29.4 +24.0 73 +41 +41 опасность
перегрева
1009.8 1007.1
18 14.10 С 3 10 км ясно +27.6 +22.0 72 +36 +36 очень
душно
1010.5 1007.8 +32.6
21 14.10 С 3 10 км ясно +26.9 +21.0 70 +34 +34 очень
душно
1010.2 1007.5
00 15.10 С 3 10 км ясно +25.3 +20.0 72 +31 +31 очень
душно
1009.9 1007.2
03 15.10 СВ 2 10 км ясно +23.6 +19.0 75 +28 +28 душно 1010.4 1007.7
06 15.10 С 2 10 км 3/0
[Ci fib]
+27.6 +23.0 76 +37 +41 очень
душно
1011.5 1008.8 +22.6
09 15.10 СЗ 7 10 км ясно +30.0 +23.0 66 +40 +44 очень
душно
1011.1 1008.4
12 15.10 СЗ 9 10 км ясно +31.6 +27.0 77 +50 +51 опасность
перегрева
1010.1 1007.4
15 15.10 СЗ 9 10 км ясно +29.4 +25.0 77 +42 +42 опасность
перегрева
1010.4 1007.7
18 15.10 СЗ 6 10 км ясно +27.8 +25.0 85 +40 +40 очень
душно
1011.2 1008.5 +23.0
21 15.10 СЗ 4 10 км ясно +27.0 +20.0 66 +33 +33 очень
душно
1010.9 1008.2
00 16.10 СЗ 4 10 км ясно +25.6 +22.0 81 +33 +33 очень
душно
1010.5 1007.8
03 16.10 С 2 10 км 3/3 1200 м
[Sc]
+23.6 +18.0 71 +28 +28 душно 1011.1 1008.4
06 16.10 С 2 10 км ясно +26.0 +22.0 79 +34 +38 очень
душно
1011.8 1009.1 +23.0
09 16.10 СЗ 7 10 км ясно +30.4 +27.0 82 +48 +51 опасность
перегрева
1011.1 1008.4
12 16.10 СЗ 10 10 км ясно +31.5 +27.0 77 +49 +50 опасность
перегрева
1009.8 1007.1
15 16.10 СЗ 8 10 км ясно +29.2 +25.0 78 +42 +42 опасность
перегрева
1009.7 1007.0
18 16.10 С 5 10 км ясно +28.5 +25.0 81 +41 +41 опасность
перегрева
1010.7 1008.0 +32.2
21 16.10 С 3 10 км ясно +26.0 +22.0 79 +34 +34 очень
душно
1010.7 1008.0
00 17.10 С 3 10 км ясно +25.0 +22.0 83 +32 +32 очень
душно
1009.3 1006.6
03 17.10 С 3 10 км ясно +24.0 +22.0 89 +31 +31 очень
душно
1009.2 1006.5
06 17.10 СЗ 2 10 км ясно +27.6 +20.0 63 +34 +38 очень
душно
1010.3 1007.6 +23.0
09 17.10 СЗ 8 10 км ясно +31.0 +25.0 70 +44 +46 опасность
перегрева
1009.8 1007.1
12 17.10 СЗ 8 10 км ясно +31.5 +25.0 68 +45 +46 опасность
перегрева
1008.4 1005.7
15 17.10 СЗ 9 10 км ясно +28.6 +24.0 76 +40 +40 очень
душно
1007.9 1005.2
18 17.10 С 4 10 км ясно +28.0 +24.0 79 +39 +39 очень
душно
1009.0 1006.3 +32.0
21 17.10 С 3 10 км ясно +25.8 +19.0 66 +31 +31 очень
душно
1009.1 1006.4
00 18.10 С 2 10 км ясно +24.8 +19.0 70 +30 +30 душно 1008.3 1005.6

 

Местоположение метеостанции Al-Wajh (Саудовская Аравия): широта 26.20 долгота 36.48 высота над уровнем моря 24 м.

В архиве по умолчанию представлена погода в Al-Wajh за последнюю неделю. Архивные данные за месяц целиком и за предыдущие месяцы, начиная с января 2011 года, Вы можете получить, выбрав интересующий диапазон дат из раскрывающегося списка и нажав кнопку "Ввод!".


*Определитесь, кто Вы:
робот инопланетянин человек

Внимание! Время в таблицах - всемирное. Для получения местного времени необходимо прибавить поправку, которая в Al-Wajh равна 3 ч.

Смотрите также архив погоды в соседних городах и на ближайших метеорологических станциях:

Погода в Al-Ula (Саудовская Аравия) (166 км)
Погода в Kosseir (Египет) (233 км)
Погода в Tabuk (Саудовская Аравия) (243 км)
Погода в Yanbu (Саудовская Аравия) (280 км)
Погода в Hurghada (Египет) (294 км)
Погода в Shalatin (Египет) (353 км)
Погода в El Tor (Египет) (362 км)
Погода в Madinah (Саудовская Аравия) (372 км)
Погода в South Of Valley University (Египет) (372 км)
Погода в Luxor (Египет) (383 км)

Пояснения к столбцам:

Ветер - указаны скорость ветра в м/с - средняя за 10 мин, порывы в срок и между сроками (в фигурных скобках) и направление, откуда дует ветер: С - северный, СВ - северо-восточный, В - восточный, ЮВ - юго-восточный, Ю - южный, ЮЗ - юго-западный, З - западный, СЗ - северо-западный.
Видимость - горизонтальная дальность видимости в метрах или километрах. При видимости от 1 до 10 км при отсутствии осадков обычно наблюдается дымка, при ухудшении видимости до 1 км и менее - туман. В сухую погоду видимость может ухудшаться дымом, пылью или мглою.
Явления - указаны атмосферные явления, наблюдавшиеся в срок или в последний час перед сроком; фигурными скобками обозначены явления, наблюдавшиеся между сроками (за 1-3 часа до срока); квадратными скобками обозначены град или гололедные отложения с указанием их диаметра в мм.
Облачность - указаны через наклонную черту общая и нижняя облачность в баллах и высота нижней границы облаков в метрах; квадратными скобками обозначены формы облаков: Ci - перистые, Cs - перисто-слоистые, Cc - перисто-кучевые, Ac - высококучевые, As - высокослоистые, Sc - слоисто-кучевые, Ns - слоисто-дождевые, Cu - кучевые, Cb - кучево-дождевые. Подробнее классификацию облаков см. в Атласе облаков (PDF).
T - Температура воздуха - температура, измеренная на высоте 2 м над землей.
Td - Температура точки росы - температура, при понижении до которой содержащийся в воздухе водяной пар достигнет насыщения.
f - Относительная влажность воздуха - влажноcть воздуха, измеренная на высоте 2 м над землей.
Te - Эффективная температура - температура, которую ощущает одетый по сезону человек в тени. Характеристика душности погоды. При расчете учитывается влияние влажности воздуха и скорости ветра на теплоощущения человека.
Tes - Эффективная температура на солнце - температура, которую ощущает человек, с поправкой на солнечный нагрев. Характеристика знойности погоды. Зависит от высоты солнца над горизонтом, облачности и скорости ветра. Ночью, в пасмурную погоду, а также при ветре 12 м/с и более поправка равна нулю.
P - Атмосферное давление - приведенное к уровню моря атмосферное давление.
Po - Атмосферное давление - измеренное на уровне метеостанции атмосферное давление.
Tmin - Минимальная температура - минимум температуры воздуха на высоте 2 м над землей.
Tmax - Максимальная температура - максимум температуры воздуха на высоте 2 м над землей.
R - Количество осадков - Количество выпавших осадков за период времени, мм. При наведении курсора мыши на число - период времени, за который выпало указанное количество осадков.
R24 - Количество осадков - Количество выпавших осадков за 24 часа, мм.
S - Снежный покров - Высота снежного покрова, см. При наведении курсора мыши на число - состояние снежного покрова и степень покрытия местности в баллах.